Tracking 18942 objects as of 18-Jan-2018
HD Live streaming from Space Station
objects crossing your sky now

FENGYUN 1C DEB

Track FENGYUN 1C DEB now!
10-day predictions


NORAD ID: 30418
Int'l Code: 1999-025AEH
Perigee: 584.2 km
Apogee: 816.7 km
Inclination: 98.8 °
Period: 98.6 minutes
Semi major axis: 7071 km
RCS: 0.03 m2 (small)
Launch date: May 10, 1999
Source: People's Republic of China (PRC)
Launch site: Taiyaun Space Center, China (TSC)

Note: This is SATELLITE DEBRIS
aabbcc
Your satellite tracking list
Your tracking list is empty




NASA's NSSDC Master Catalog

Two Line Element Set (TLE):
1 30418U 99025AEH 18017.53810478 +.00000494 +00000-0 +96239-4 0  9994
2 30418 098.7977 287.3994 0164385 031.4119 093.4116 14.59951636583338
Source of the keplerian elements: AFSPC